Terminal Aerodrome Forecast
Issued by NWS

Home | Current Version | Previous Version | Text Only | Print | Product List | Glossary On
Versions: 1 2 3 4 5 6 7 8 9 10 11 12 13
000
FTUS46 KSTO 212300
TAFSAC
TAF
KSAC 212321Z 2200/2224 22008KT P6SM SKC
     FM220600 19005KT P6SM SKC
     FM222200 22011G16KT P6SM FEW250=

USA.gov is the U.S. government's official web portal to all federal, state and local government web resources and services.